Showing default

OPS 6638 (VELA 7), 2765

Orbit data source: Space-Track

OPS 6638 (VELA 7), 2765 is a payload satellite owned by USAF SSD (US) in HEO that was launched on Fri, 28 Apr 1967 UTC via a TITAN IIIC launch vehicle from the Air Force Eastern Test Range (AFETR). Payload-class satellites include a variety of spacecraft equipped with specific instruments for various scientific and technological missions. These include communications satellites like Starlink; space stations such as the ISS; scientific satellites like the Hubble; Earth observation satellites from companies like Planet Labs, Umbra, and HawkEye 360; GPS; miniature CubeSats for education and research; and military/defense satellites.

Loading next visibility...
Identifier
2765, 1967-040A
Orbit
HEO
Country
Flag of USUS
Related business
Manufacturer
TRW
Mission
Spacecraft
Bus & Motor
VELA, BE-3
Mass
331 kg wet, 221 kg dry
Launch date (UTC)
1967-04-28 (59 years ago)
Launch vehicle
TITAN IIIC
Launch site
Air Force Eastern Test Range (AFETR)
Object type
Payload
Rocket body
Debris
Shape & HBR
POLY, 1.1 m
Radar Cross Section
Medium (>0.1 m² and <1 m²)

Expand to show TLE details & history
Last TLE update: 1 month ago

TLE from 1 month ago
0 OPS 6638 (VELA 7)
1 02765U 67040A   26214.16775039 -.00001205  00000-0  00000-0 0  9999
2 02765  41.6878   3.0776 4993940 297.1855 359.4199  0.21534265 13589
Epoch: 2026-08-02T04:01Z
TLE epoch observation values (Epoch: 2026-08-02T04:01:33.633Z)
Latitude
-37.73447°
Longitude
-68.50431°
Altitude
51,491.647 km
Speed
3.223 km/s
True Right ascension
20h 10m 37s
True Declination
-37° 42' 50"
Sunlit
Object was in daylight at epoch
Visualization orbit readout
Latitude
Unknown
Longitude
Unknown
Altitude
Unknown
Speed
Unknown
Apparent Right ascension
Unknown
Apparent Declination
Unknown
Sunlit
N/A
Visualization observer readout
Local Sidereal Time
07:32:57
Azimuth
Unknown
Elevation
Unknown
Doppler factor
Unknown
Orbital elements
Apogee altitude
169,913.573 km
Perigee altitude
52,480.767 km
Semi-major axis
117,575.307 km
Eccentricity
0.49939
Inclination
41.6878°
RAAN
3.0776°
Arg. of periapsis
297.1855°
True anomaly
357.9948°
Mean anomaly
359.4199°
Eccentric anomaly
358.84128°
Mean motion
0.05384 °/min
Orbital period
6,687.03 mins
BSTAR
0
Loading maneuver chart data...
Computing Atmospheric mass density...
Loading historical data...
Loading historical data...
Loading historical data...
Loading historical data...
Loading historical data...
Loading historical data...
Loading historical data...

Documentation

Showing up to 5 results
|